MDT,Max TemperatureF,Mean TemperatureF,Min TemperatureF,Max Dew PointF,MeanDew PointF,Min DewpointF,Max Humidity, Mean Humidity, Min Humidity, Max Sea Level PressureIn, Mean Sea Level PressureIn, Min Sea Level PressureIn, Max VisibilityMiles, Mean VisibilityMiles, Min VisibilityMiles, Max Wind SpeedMPH, Mean Wind SpeedMPH, Max Gust SpeedMPH,PrecipitationIn, CloudCover, Events, WindDirDegrees
2012-9-1,87,69,51,49,36,14,52,31,9,29.91,29.74,29.67,10,10,8,37,16,46,0.00,0,,224
2012-9-2,83,65,47,23,19,16,29,20,10,29.99,29.92,29.86,10,9,3,31,14,40,0.00,0,,233
2012-9-3,81,63,44,30,25,17,40,28,15,30.02,29.96,29.90,10,10,10,22,9,37,0.00,0,,257
2012-9-4,65,57,49,39,35,29,58,42,26,30.15,30.07,29.91,10,10,10,15,7,30,0.00,0,,305
2012-9-5,81,63,44,38,34,29,75,46,16,30.09,30.00,29.91,10,10,10,28,11,36,0.00,1,,265
2012-9-6,61,52,42,45,43,38,86,67,47,30.24,30.16,30.05,10,10,10,13,5,15,0.00,5,,355
2012-9-7,82,59,36,43,33,21,92,53,13,30.29,30.24,30.18,10,10,10,13,5,17,0.00,0,,183
2012-9-8,88,64,40,32,26,23,54,32,10,30.28,30.14,29.97,10,10,9,18,8,28,0.00,0,,209
2012-9-9,91,72,52,36,29,25,32,21,10,29.94,29.78,29.62,10,8,4,23,9,29,0.00,1,,202
2012-9-10,79,63,46,36,28,18,47,29,10,29.87,29.72,29.66,10,9,3,37,19,48,0.00,1,,239
2012-9-11,66,53,39,33,18,5,62,36,9,30.20,30.04,29.90,10,10,10,26,11,33,0.00,0,,277
2012-9-12,66,51,36,21,19,15,44,30,16,30.39,30.30,30.21,10,10,10,13,5,18,0.00,0,,264
2012-9-13,80,62,44,29,25,20,37,26,15,30.39,30.31,30.23,10,10,10,14,8,17,0.00,0,,181
2012-9-14,86,67,48,27,22,18,39,24,8,30.23,30.08,29.96,10,6,2,28,13,31,0.00,2,,216
2012-9-15,75,61,47,33,28,22,41,31,20,30.08,30.04,29.97,10,9,6,17,5,21,0.00,0,,284
2012-9-16,68,57,45,32,31,28,53,39,24,30.28,30.19,30.07,10,10,9,15,8,18,0.00,0,,357
2012-9-17,78,58,38,34,32,29,70,45,19,30.20,30.12,30.04,10,10,10,17,6,22,0.00,0,,246
2012-9-18,89,70,51,33,27,14,48,28,7,30.06,29.95,29.83,10,10,10,24,14,32,0.00,0,,238
2012-9-19,82,62,41,34,31,28,62,39,15,30.21,30.10,29.99,10,10,10,10,6,14,0.00,0,,247
2012-9-20,80,60,40,32,30,28,57,37,17,30.22,30.12,30.06,10,10,10,12,6,12,0.00,0,,231
2012-9-21,82,63,43,35,33,31,53,36,18,30.17,30.11,30.06,10,10,10,13,8,16,0.00,0,,127
2012-9-22,84,64,43,36,34,31,60,39,17,30.13,30.05,29.96,10,10,10,14,5,20,0.00,0,,120
2012-9-23,71,57,43,37,35,33,65,46,27,30.10,30.06,29.98,10,10,10,9,4,9,0.00,0,,255
2012-9-24,80,60,40,36,35,33,73,46,18,30.06,29.97,29.88,10,10,10,10,5,12,0.00,0,,202
2012-9-25,78,63,46,40,37,33,60,42,24,29.98,29.90,29.88,10,9,7,10,7,,T,0,,244
2012-9-26,66,55,44,46,44,40,83,64,45,30.17,30.12,30.06,10,10,10,8,5,14,0.00,5,,308
2012-9-27,74,56,38,44,41,37,92,61,29,30.20,30.12,30.04,10,10,7,13,5,14,0.00,0,,111
2012-9-28,83,62,40,40,35,29,76,46,15,30.05,29.94,29.84,10,9,6,13,3,14,0.00,0,,229
2012-9-29,80,67,53,40,35,31,47,34,20,30.03,29.95,29.87,10,9,6,21,11,25,T,2,,234
2012-9-30,73,59,45,39,37,34,61,45,29,30.29,30.17,30.03,10,10,10,16,8,22,0.00,0,,296